TimeEDT,TemperatureF,Dew PointF,Humidity,Sea Level PressureIn,VisibilityMPH,Wind Direction,Wind SpeedMPH,Gust SpeedMPH,PrecipitationIn,Events,Conditions,WindDirDegrees,DateUTC
12:34 AM,60.8,59.0,94,30.16,0.2,NE,4.6,-,N/A,Fog,Fog,50,2012-10-04 04:34:00
12:54 AM,60.1,59.0,96,30.17,0.2,NE,5.8,-,N/A,Fog,Fog,50,2012-10-04 04:54:00
1:19 AM,59.0,59.0,100,30.17,0.2,Calm,Calm,-,N/A,Fog,Fog,0,2012-10-04 05:19:00
1:38 AM,59.0,59.0,100,30.17,0.2,ENE,4.6,-,N/A,Fog,Fog,70,2012-10-04 05:38:00
1:54 AM,59.0,57.9,96,30.17,0.2,ENE,4.6,-,N/A,Fog,Fog,60,2012-10-04 05:54:00
2:54 AM,59.0,57.9,96,30.16,0.2,NE,5.8,-,N/A,Fog,Fog,40,2012-10-04 06:54:00
3:16 AM,59.0,57.2,94,30.16,0.2,NE,3.5,-,N/A,Fog,Fog,50,2012-10-04 07:16:00
3:43 AM,59.0,57.2,94,30.16,0.2,Calm,Calm,-,N/A,Fog,Fog,0,2012-10-04 07:43:00
3:54 AM,59.0,57.9,96,30.16,0.2,NNE,3.5,-,N/A,Fog,Fog,30,2012-10-04 07:54:00
4:12 AM,57.2,57.2,100,30.16,0.2,NE,3.5,-,N/A,Fog,Fog,50,2012-10-04 08:12:00
4:54 AM,57.9,57.9,100,30.17,0.5,NE,4.6,-,N/A,Fog,Fog,40,2012-10-04 08:54:00
5:03 AM,57.2,57.2,100,30.16,0.2,NE,4.6,-,N/A,Fog,Fog,50,2012-10-04 09:03:00
5:37 AM,57.2,57.2,100,30.16,0.2,NE,4.6,-,N/A,Fog,Fog,40,2012-10-04 09:37:00
5:54 AM,57.9,57.0,97,30.17,0.2,NE,4.6,-,N/A,Fog,Fog,40,2012-10-04 09:54:00
6:03 AM,57.2,57.2,100,30.17,0.5,NNE,4.6,-,N/A,Fog,Fog,20,2012-10-04 10:03:00
6:15 AM,57.2,57.2,100,30.17,0.2,NNE,3.5,-,N/A,Fog,Fog,20,2012-10-04 10:15:00
6:35 AM,57.2,57.2,100,30.16,0.2,NE,4.6,-,0.00,Fog,Fog,40,2012-10-04 10:35:00
6:54 AM,57.9,57.0,97,30.16,0.2,NE,8.1,-,0.00,Fog,Fog,40,2012-10-04 10:54:00
7:45 AM,57.2,57.2,100,30.17,0.2,ENE,4.6,-,0.00,Fog,Fog,60,2012-10-04 11:45:00
7:54 AM,57.9,57.9,100,30.17,0.2,ENE,5.8,-,0.00,Fog,Fog,60,2012-10-04 11:54:00
8:54 AM,57.9,57.9,100,30.17,0.2,NE,3.5,-,N/A,Fog,Fog,40,2012-10-04 12:54:00
9:16 AM,57.2,57.2,100,30.18,0.2,Calm,Calm,-,N/A,Fog,Fog,0,2012-10-04 13:16:00
9:20 AM,57.2,57.2,100,30.18,0.2,Calm,Calm,-,N/A,Fog,Fog,0,2012-10-04 13:20:00
9:27 AM,57.2,57.2,100,30.18,0.2,Calm,Calm,-,N/A,Fog,Fog,0,2012-10-04 13:27:00
9:54 AM,59.0,57.9,96,30.18,0.2,NNE,4.6,-,0.01,Fog-Rain,Light Rain,30,2012-10-04 13:54:00
10:26 AM,59.0,59.0,100,30.16,0.2,NE,4.6,-,0.00,Fog-Rain,Light Rain,40,2012-10-04 14:26:00
10:46 AM,59.0,59.0,100,30.16,0.5,NE,5.8,-,0.00,Fog,Fog,50,2012-10-04 14:46:00
10:54 AM,59.0,57.9,96,30.17,0.5,NE,4.6,-,0.00,Fog,Fog,50,2012-10-04 14:54:00
11:02 AM,59.0,57.2,94,30.17,3.0,ENE,3.5,-,N/A,,Overcast,70,2012-10-04 15:02:00
11:09 AM,59.0,59.0,100,30.17,1.0,ENE,3.5,-,N/A,,Overcast,70,2012-10-04 15:09:00
11:54 AM,60.1,59.0,96,30.17,1.0,Calm,Calm,-,0.00,Rain,Light Rain,0,2012-10-04 15:54:00
12:54 PM,61.0,59.0,93,30.15,1.0,Calm,Calm,-,0.00,Rain,Light Rain,0,2012-10-04 16:54:00
1:17 PM,60.8,59.0,94,30.13,0.2,Variable,3.5,-,0.00,,Overcast,0,2012-10-04 17:17:00
1:54 PM,61.0,59.0,93,30.12,2.0,Calm,Calm,-,0.00,,Overcast,0,2012-10-04 17:54:00
2:09 PM,60.8,59.0,94,30.11,0.2,Variable,4.6,-,N/A,Fog,Fog,0,2012-10-04 18:09:00
2:35 PM,60.8,59.0,94,30.10,0.2,Calm,Calm,-,N/A,Fog,Fog,0,2012-10-04 18:35:00
2:54 PM,60.1,59.0,96,30.09,0.2,ENE,5.8,-,N/A,Fog,Fog,70,2012-10-04 18:54:00
3:40 PM,60.8,59.0,94,30.09,0.2,West,4.6,-,N/A,,Mist,280,2012-10-04 19:40:00
3:54 PM,60.1,59.0,96,30.09,1.0,West,3.5,-,0.00,Rain,Light Rain,280,2012-10-04 19:54:00
4:54 PM,61.0,60.1,97,30.08,1.2,East,3.5,-,0.00,,Overcast,100,2012-10-04 20:54:00
5:40 PM,60.8,60.8,100,30.09,0.5,Calm,Calm,-,N/A,,Overcast,0,2012-10-04 21:40:00
5:54 PM,61.0,60.1,97,30.08,0.5,ESE,3.5,-,N/A,,Overcast,120,2012-10-04 21:54:00
6:54 PM,61.0,60.1,97,30.09,0.5,South,3.5,-,N/A,Fog,Fog,190,2012-10-04 22:54:00
7:06 PM,60.8,60.8,100,30.07,0.5,SE,4.6,-,0.00,Fog-Rain,Light Rain,140,2012-10-04 23:06:00
7:18 PM,60.8,60.8,100,30.07,0.2,SE,3.5,-,0.00,Fog,Fog,140,2012-10-04 23:18:00
7:54 PM,61.0,60.1,97,30.07,0.2,Calm,Calm,-,0.00,Fog-Rain,Light Rain,0,2012-10-04 23:54:00
8:01 PM,60.8,60.8,100,30.07,0.5,SW,3.5,-,0.00,Fog-Rain,Light Rain,230,2012-10-05 00:01:00
8:54 PM,61.0,60.1,97,30.06,0.5,SSW,3.5,-,0.01,Fog-Rain,Light Rain,210,2012-10-05 00:54:00
9:01 PM,60.8,60.8,100,30.05,0.2,South,4.6,-,0.01,Fog-Rain,Light Rain,190,2012-10-05 01:01:00
9:26 PM,60.8,60.8,100,30.05,0.2,SSW,3.5,-,0.01,Fog-Rain,Light Rain,210,2012-10-05 01:26:00
9:54 PM,61.0,61.0,100,30.06,0.5,West,3.5,-,0.01,Fog,Fog,260,2012-10-05 01:54:00
10:25 PM,62.6,60.8,94,30.06,1.0,West,4.6,-,N/A,,Mist,270,2012-10-05 02:25:00
10:36 PM,62.6,60.8,94,30.06,0.5,West,3.5,-,N/A,Fog,Fog,260,2012-10-05 02:36:00
10:46 PM,62.6,60.8,94,30.05,0.2,WSW,5.8,-,N/A,Fog,Fog,250,2012-10-05 02:46:00
10:54 PM,62.1,61.0,96,30.06,0.5,WSW,5.8,-,N/A,Fog,Fog,250,2012-10-05 02:54:00
11:19 PM,62.6,60.8,94,30.06,2.0,West,9.2,-,N/A,,Overcast,270,2012-10-05 03:19:00
11:28 PM,62.6,60.8,94,30.06,7.0,West,8.1,-,N/A,,Overcast,270,2012-10-05 03:28:00
11:54 PM,62.1,61.0,96,30.06,9.0,West,8.1,-,N/A,,Overcast,270,2012-10-05 03:54:00